Zurück zum Katalog

BREEZE-M R/B

AktivHEO
NORAD 29254·ROCKET BODY·🇷🇺 Russia

Gestartet Aug 4, 2006 von Baikonur Cosmodrome

Loading…

Nächste Überflüge (nächste 24 Stunden)

TLE

AktuellSource: Space-Track

Epoche: Sep 13, 2026, 14:11 UTC

1 29254U 06032B   26256.59163069 -.00000130  00000-0  00000-0 0  9998
2 29254  13.4591  26.4767 6086108  42.0091 351.1828  2.06438021151140

Verfolge BREEZE-M R/B in Echtzeit mit AllMySat

Download on the App Store